Date String (YYYY-MM-DD hh:mm:ss) UTC,Instrument flags,Ambient pressure (hPa),Sample flow (lpm),Bypass flow (lpm),Sample temperature (°C),Ambient temperature (°C),ASC tube jacket temperature (°C),LED temperature (°C),Box temperature (°C),Sample RH (%),Span deviation,Mass concentration (μg/m³),Mass concentration (μg/m³),Mass concentration (μg/m³)
DateTimeUTC,F1_M11,P_M11,Q1_M11,Q2_M11,T1_M11,T2_M11,T3_M11,T4_M11,T5_M11,U1_M11,ZSPAN_M11,X0_M11,X2_M11,X1_M11
2023-02-14 08:00:00,,0803.2,5.00,0.00,22.7,21.2,00.0,31.5,24.5,12.9,0000.0,0009.66,0004.52,0003.98
2023-02-14 08:01:00,,0803.2,5.00,0.00,22.7,21.2,00.0,31.5,24.5,12.9,0000.0,0009.63,0004.49,0003.96
2023-02-14 08:02:00,,0803.2,5.00,0.00,22.7,21.1,00.0,31.5,24.5,12.9,0000.0,0009.67,0004.48,0003.92
2023-02-14 08:03:00,,0803.1,5.00,0.00,22.6,21.1,00.0,31.5,24.5,12.9,0000.0,0009.51,0004.37,0003.83
2023-02-14 08:04:00,,0803.0,5.00,0.00,22.6,21.0,00.0,31.5,24.5,12.9,0000.0,0009.13,0004.24,0003.70
2023-02-14 08:05:00,,0803.0,4.99,0.00,22.6,21.0,00.0,31.5,24.5,12.9,0000.0,0008.89,0004.04,0003.54
2023-02-14 08:06:00,,0803.0,5.00,0.00,22.6,21.0,00.0,31.5,24.5,12.9,0000.0,0008.48,0003.90,0003.40
2023-02-14 08:07:00,,0803.0,5.01,0.00,22.6,21.0,00.0,31.5,24.5,12.9,0000.0,0007.92,0003.71,0003.27
2023-02-14 08:08:00,,0803.0,5.01,0.00,22.6,20.9,00.0,31.5,24.4,12.9,0000.0,0007.75,0003.57,0003.13
2023-02-14 08:09:00,,0803.0,4.99,0.00,22.6,20.9,00.0,31.5,24.4,12.9,0000.0,0006.05,0003.47,0002.96
2023-02-14 08:10:00,,0802.9,5.00,0.00,22.6,20.8,00.0,31.5,24.4,12.9,0000.0,0005.94,0003.38,0002.76
2023-02-14 08:11:00,,0802.9,5.00,0.00,22.5,20.8,00.0,31.4,24.3,13.0,0000.0,0005.84,0003.33,0002.68
2023-02-14 08:12:00,,0803.0,5.00,0.00,22.5,20.7,00.0,31.4,24.3,13.0,0000.0,0007.02,0003.27,0002.60
2023-02-14 08:13:00,,0802.9,5.00,0.00,22.5,20.6,00.0,31.4,24.2,13.0,0000.0,0007.10,0003.22,0002.52
2023-02-14 08:14:00,,0802.9,5.00,0.00,22.4,20.5,00.0,31.4,24.1,13.0,0000.0,0007.55,0003.23,0002.47
2023-02-14 08:15:00,,0803.0,5.01,0.00,22.4,20.5,00.0,31.4,24.2,13.1,0000.0,0008.11,0003.22,0002.42
2023-02-14 08:16:00,,0802.9,5.01,0.00,22.5,21.2,00.0,31.3,24.3,13.1,0000.0,0008.35,0003.23,0002.37
2023-02-14 08:17:00,,0803.0,4.99,0.00,22.6,22.2,00.0,31.3,24.6,13.0,0000.0,0008.88,0003.24,0002.33
2023-02-14 08:18:00,,0802.9,5.00,0.00,22.7,22.7,00.0,31.3,24.7,13.0,0000.0,0008.83,0003.22,0002.32
2023-02-14 08:19:00,,0802.9,5.01,0.00,22.7,22.2,00.0,31.4,24.6,12.9,0000.0,0009.02,0003.21,0002.28
2023-02-14 08:20:00,,0802.8,5.00,0.00,22.6,21.8,00.0,31.4,24.5,12.9,0000.0,0009.54,0003.20,0002.23
2023-02-14 08:21:00,,0802.8,5.01,0.00,22.6,21.4,00.0,31.4,24.4,12.9,0000.0,0010.10,0003.16,0002.21
2023-02-14 08:22:00,,0802.8,4.99,0.00,22.6,21.2,00.0,31.4,24.4,12.9,0000.0,0010.17,0003.18,0002.24
2023-02-14 08:23:00,,0802.8,5.00,0.00,22.6,21.0,00.0,31.4,24.4,12.9,0000.0,0009.63,0003.21,0002.24
2023-02-14 08:24:00,,0802.8,5.00,0.00,22.6,20.9,00.0,31.4,24.3,12.9,0000.0,0009.34,0003.20,0002.24
2023-02-14 08:25:00,,0802.7,5.01,0.00,22.5,20.8,00.0,31.4,24.3,12.9,0000.0,0009.24,0003.20,0002.27
2023-02-14 08:26:00,,0802.7,5.00,0.00,22.5,20.7,00.0,31.4,24.3,12.9,0000.0,0008.69,0003.24,0002.32
2023-02-14 08:27:00,,0802.7,4.99,0.00,22.5,20.7,00.0,31.4,24.2,12.8,0000.0,0008.69,0003.26,0002.38
2023-02-14 08:28:00,,0802.7,5.00,0.00,22.5,20.7,00.0,31.4,24.3,12.7,0000.0,0008.30,0003.26,0002.46
2023-02-14 08:29:00,,0802.7,5.00,0.00,22.5,20.7,00.0,31.4,24.3,12.6,0000.0,0008.16,0003.31,0002.54
2023-02-14 08:30:00,,0802.7,5.00,0.00,22.5,20.7,00.0,31.4,24.2,12.7,0000.0,0008.27,0003.37,0002.61
2023-02-14 08:31:00,,0802.6,5.00,0.00,22.4,20.7,00.0,31.4,24.2,12.8,0000.0,0007.74,0003.43,0002.72
2023-02-14 08:32:00,,0802.6,5.01,0.00,22.4,20.6,00.0,31.4,24.2,12.8,0000.0,0007.34,0003.51,0002.82
2023-02-14 08:33:00,,0802.6,5.00,0.00,22.4,20.6,00.0,31.4,24.2,12.7,0000.0,0007.73,0003.58,0002.94
2023-02-14 08:34:00,,0802.4,5.00,0.00,22.4,20.6,00.0,31.3,24.2,12.7,0000.0,0007.69,0003.58,0003.02
2023-02-14 08:35:00,,0802.4,5.00,0.00,22.4,20.5,00.0,31.3,24.1,12.6,0000.0,0007.76,0003.65,0003.11
2023-02-14 08:36:00,,0802.4,4.99,0.00,22.3,20.4,00.0,31.3,24.1,12.6,0000.0,0007.79,0003.69,0003.17
2023-02-14 08:37:00,,0802.3,4.99,0.00,22.3,20.4,00.0,31.3,24.1,12.5,0000.0,0008.20,0003.71,0003.22
2023-02-14 08:38:00,,0802.3,5.00,0.00,22.3,20.4,00.0,31.3,24.1,12.5,0000.0,0008.00,0003.70,0003.23
2023-02-14 08:39:00,,0802.3,5.01,0.00,22.3,20.4,00.0,31.3,24.1,12.5,0000.0,0008.09,0003.67,0003.20
2023-02-14 08:40:00,,0802.3,4.99,0.00,22.3,21.3,00.0,31.2,24.3,12.4,0000.0,0007.95,0003.59,0003.14
2023-02-14 08:41:00,,0802.3,4.99,0.00,22.5,22.5,00.0,31.2,24.5,12.3,0000.0,0007.72,0003.50,0003.07
2023-02-14 08:42:00,,0802.3,5.02,0.00,22.6,23.0,00.0,31.2,24.7,12.3,0000.0,0007.54,0003.43,0002.97
2023-02-14 08:43:00,,0802.3,4.98,0.00,22.6,22.5,00.0,31.3,24.6,12.4,0000.0,0007.50,0003.37,0002.89
2023-02-14 08:44:00,,0802.3,5.01,0.00,22.6,22.1,00.0,31.3,24.6,12.5,0000.0,0006.62,0003.28,0002.76
2023-02-14 08:45:00,,0802.3,4.98,0.00,22.6,21.7,00.0,31.4,24.5,12.5,0000.0,0006.59,0003.24,0002.69
2023-02-14 08:46:00,,0802.3,4.98,0.00,22.6,21.5,00.0,31.4,24.4,12.4,0000.0,0007.06,0003.17,0002.55
2023-02-14 08:47:00,,0802.2,4.99,0.00,22.6,21.3,00.0,31.4,24.4,12.4,0000.0,0006.83,0003.02,0002.36
2023-02-14 08:48:00,,0802.2,5.00,0.00,22.6,21.1,00.0,31.4,24.4,12.4,0000.0,0005.85,0002.82,0002.21
2023-02-14 08:49:00,,0802.2,5.01,0.00,22.6,21.0,00.0,31.4,24.3,12.4,0000.0,0005.48,0002.73,0002.11
2023-02-14 08:50:00,,0802.2,5.01,0.00,22.5,20.9,00.0,31.4,24.3,12.4,0000.0,0005.39,0002.69,0002.09
2023-02-14 08:51:00,,0802.2,5.00,0.00,22.5,20.8,00.0,31.4,24.3,12.4,0000.0,0005.25,0002.74,0002.10
2023-02-14 08:52:00,,0802.2,5.00,0.00,22.5,20.8,00.0,31.4,24.3,12.5,0000.0,0005.34,0002.79,0002.13
2023-02-14 08:53:00,,0802.2,5.00,0.00,22.5,20.6,00.0,31.4,24.2,12.2,0000.0,0005.34,0002.75,0002.12
2023-02-14 08:54:00,,0802.2,4.99,0.00,22.4,20.6,00.0,31.4,24.1,12.2,0000.0,0005.65,0002.65,0002.05
2023-02-14 08:55:00,,0802.1,5.03,0.00,22.4,20.5,00.0,31.3,24.1,12.0,0000.0,0005.65,0002.56,0001.99
2023-02-14 08:56:00,,0802.0,5.02,0.00,22.3,20.4,00.0,31.3,24.0,11.9,0000.0,0005.81,0002.46,0001.89
2023-02-14 08:57:00,,0801.9,5.00,0.00,22.3,20.3,00.0,31.3,24.0,12.0,0000.0,0004.87,0002.32,0001.80
2023-02-14 08:58:00,,0801.9,4.98,0.00,22.3,20.2,00.0,31.3,24.0,12.1,0000.0,0004.77,0002.27,0001.78
2023-02-14 08:59:00,,0801.9,5.00,0.00,22.3,20.2,00.0,31.3,23.9,12.3,0000.0,0004.68,0002.21,0001.74
